Theta_e
358 357 357 356 356 354 354 346 344 345 350 346 347 349 350 355 356 354 353 354 356 355 358 365 367 367 361 362 366 369 363 367 366 360 360 358 356 354 351 350 351 350
358 358 359 357 357 358 356 353 347 347 350 353 349 350 351 352 352 355 355 355 356 353 359 362 366 364 363 361 363 360 364 360 358 351 355 358 357 353 352 352 350 353
356 356 355 354 355 354 352 353 352 349 346 346 346 349 348 349 349 354 355 355 354 353 357 360 362 364 362 363 364 360 357 362 357 353 356 357 357 356 355 350 348 347
356 355 353 354 356 353 353 354 352 350 346 344 343 344 346 346 347 350 355 359 355 354 353 354 356 359 360 359 361 359 356 362 357 360 361 363 361 352 350 357 351 347
354 355 356 355 356 355 353 352 350 347 345 345 343 345 350 354 350 346 351 355 355 352 353 355 356 354 357 357 359 358 355 354 356 364 362 362 363 359 355 355 361 352
355 356 356 355 355 353 351 349 348 347 346 344 344 344 344 349 349 348 348 349 349 349 348 348 351 350 352 356 358 355 353 350 352 360 359 360 357 355 357 358 359 356
353 353 353 356 356 353 351 349 348 348 346 345 345 344 344 344 346 350 354 352 350 351 349 350 353 352 353 354 357 357 357 359 359 362 357 357 362 359 362 356 362 360
351 355 353 354 353 353 352 350 347 348 348 348 345 346 349 346 346 345 347 350 348 348 349 348 354 355 352 351 353 356 355 349 351 359 366 361 364 363 365 366 364 366
352 353 354 350 350 350 350 347 347 347 347 345 343 344 347 349 347 345 347 348 348 347 350 349 351 352 351 351 351 354 354 352 355 355 357 356 359 362 364 366 364 366
350 354 352 352 354 351 350 349 348 348 348 345 346 346 344 347 346 345 348 351 348 350 352 351 351 350 349 349 354 356 355 355 355 358 357 354 355 358 360 364 366 364
348 349 349 351 356 355 349 349 348 349 350 349 347 347 347 347 348 349 350 351 345 346 347 352 351 352 353 349 349 352 357 356 356 356 357 360 359 363 365 366 363 361
351 351 352 349 350 350 350 351 349 347 348 350 350 349 348 346 347 346 346 350 348 348 346 348 352 353 354 356 352 352 352 353 358 362 357 356 355 363 364 364 362 362
358 358 356 356 354 349 350 351 350 349 348 348 349 350 353 346 345 349 348 346 348 348 347 348 350 350 355 359 355 354 355 355 352 353 355 354 353 361 359 363 362 361
357 357 359 362 361 363 360 357 353 350 353 352 349 349 347 348 347 345 347 347 347 346 348 351 355 354 357 358 358 355 354 353 355 353 352 354 357 356 356 361 364 363
360 361 360 361 360 361 363 362 362 364 362 359 356 352 347 348 349 348 348 346 346 348 351 352 352 355 355 356 355 356 355 351 352 352 353 354 361 362 361 364 363 365
359 361 360 361 362 363 364 364 363 364 363 363 362 360 358 360 360 355 349 346 348 349 350 353 357 356 359 357 357 355 354 350 352 354 354 359 363 360 359 360 363 365
361 360 360 360 363 364 365 364 365 365 365 365 365 364 365 370 362 356 354 352 351 350 346 347 348 350 355 344 344 353 357 355 355 360 361 369 361 358 357 358 361 364
362 362 362 362 362 363 364 365 364 364 363 363 362 359 364 361 361 362 363 357 357 351 349 347 349 352 341 340 342 343 355 354 352 353 359 369 362 360 359 360 361 362
360 359 360 360 361 361 362 362 361 360 359 358 358 358 359 360 363 362 360 358 356 356 352 352 353 349 338 337 337 338 341 354 350 351 352 360 362 359 359 361 363 362
357 358 358 358 358 359 358 359 358 356 355 354 354 351 351 352 356 358 359 362 361 359 360 357 356 358 340 334 333 334 336 345 352 351 355 365 365 361 361 361 361 362
351 353 355 357 357 357 356 355 356 355 355 357 356 353 352 351 354 354 354 355 356 357 357 353 352 342 334 331 328 329 333 343 352 353 352 360 364 363 361 361 361 363
351 350 350 353 350 350 351 352 351 353 354 355 354 356 356 356 356 353 352 353 357 358 359 360 358 343 338 334 328 326 330 345 353 355 355 357 362 364 363 364 364 364
352 347 346 347 347 344 343 346 349 352 354 357 355 356 354 354 354 353 353 353 355 358 359 358 357 348 338 334 330 325 331 346 353 354 355 356 355 362 365 365 365 366
354 352 348 346 344 344 345 346 349 353 351 352 351 352 353 353 352 352 354 356 356 356 357 355 356 353 337 330 328 326 334 346 352 355 354 355 355 357 361 363 364 362
354 352 354 352 349 345 344 348 350 353 353 354 354 352 351 351 350 350 352 352 353 354 356 354 352 349 335 330 327 325 332 344 348 352 353 354 354 354 356 359 361 359
353 352 353 352 351 352 352 352 353 355 353 354 353 353 351 350 350 349 348 349 351 353 354 355 353 353 349 329 323 322 323 341 346 348 350 352 353 352 352 356 359 360
Wind_Speed
7 7 6 6 6 5 6 7 9 9 5 8 9 9 7 6 9 10 11 9 10 8 7 6 6 6 6 5 5 3 4 3 3 5 7 6 5 7 7 7 6 5
9 8 6 6 5 4 6 7 8 8 7 5 7 7 8 7 9 7 7 6 9 10 7 8 8 7 6 6 5 5 4 4 5 6 3 6 5 7 7 7 7 5
8 8 9 9 7 9 9 8 7 7 8 11 10 8 10 10 10 8 6 6 7 9 8 8 8 7 8 7 5 6 7 6 6 7 4 4 4 5 5 7 6 6
10 10 10 10 9 9 9 8 8 6 8 9 10 11 10 11 10 9 9 9 7 8 8 9 10 10 10 8 6 6 6 5 6 5 4 3 3 4 5 3 5 6
13 13 11 10 9 10 10 9 10 10 11 9 11 10 7 6 8 10 10 10 9 11 9 9 10 9 8 8 7 6 7 7 6 5 5 4 3 4 4 4 3 4
8 8 9 10 10 11 10 11 12 12 13 13 11 10 9 7 6 8 9 11 12 11 11 10 11 11 9 8 8 7 8 8 6 5 5 5 5 5 4 3 3 4
10 10 12 10 10 11 12 12 13 12 12 12 9 10 10 10 9 7 5 8 10 10 12 8 6 7 8 7 7 7 6 5 5 5 7 6 4 4 4 5 3 4
13 10 11 12 13 13 13 13 15 12 12 11 12 10 8 9 10 11 9 7 9 10 9 10 6 7 8 7 6 6 7 8 7 5 3 4 3 3 4 4 2 2
11 10 11 14 15 14 15 15 12 12 12 13 14 12 9 7 9 11 9 9 10 10 10 10 8 8 8 6 6 7 8 7 5 6 5 5 5 5 5 4 4 2
11 12 8 6 4 10 14 15 12 12 10 12 10 7 10 10 11 11 9 8 9 8 8 9 8 8 8 9 7 6 7 8 7 5 5 7 6 7 8 5 4 2
7 8 12 13 9 6 8 13 15 13 12 12 10 11 12 11 10 8 7 8 11 10 9 6 7 7 6 8 8 6 4 5 7 7 5 4 4 4 4 4 4 4
6 5 4 8 8 8 11 10 10 11 11 10 10 10 12 11 9 10 10 7 10 10 10 8 6 6 6 5 6 6 7 7 5 5 7 6 6 5 5 4 5 4
4 4 4 3 4 8 8 7 3 3 11 9 9 5 2 10 11 7 9 10 10 10 11 9 8 9 6 5 6 6 6 7 9 7 6 6 7 3 3 5 6 6
5 5 3 2 2 1 2 3 4 5 2 8 8 8 13 13 8 10 7 8 9 9 10 7 7 7 7 6 6 7 6 6 6 7 9 7 5 6 6 7 6 6
3 3 2 2 2 3 3 3 3 3 1 6 5 2 6 7 6 7 9 13 11 9 6 6 7 6 6 6 7 7 7 8 7 7 6 6 6 8 6 4 6 6
4 3 3 3 3 3 3 3 3 3 4 4 3 2 2 2 2 3 8 8 5 4 6 6 5 4 6 11 10 7 7 9 7 7 7 4 6 7 5 6 5 5
5 5 4 4 4 3 3 3 3 3 2 3 3 4 3 1 2 4 4 2 2 7 5 9 8 8 12 11 13 13 9 6 7 4 4 4 7 7 8 7 6 6
5 5 5 5 4 4 3 3 3 3 3 4 4 5 4 3 4 4 2 3 3 4 6 9 6 9 11 12 14 15 12 10 7 5 2 1 6 7 8 7 7 6
4 4 4 4 4 4 3 2 2 2 4 6 5 4 5 5 4 4 4 4 4 4 7 6 5 8 19 15 15 15 16 13 8 8 7 10 8 9 8 8 7 7
2 3 4 3 3 2 2 2 3 2 2 4 6 7 5 5 5 4 3 3 4 5 5 5 5 7 10 11 12 15 16 13 10 11 8 9 9 9 7 9 9 8
1 3 2 3 1 2 1 1 2 1 4 4 5 6 6 6 6 4 3 3 5 5 6 9 9 2 7 2 8 12 14 12 10 10 8 7 8 9 9 9 10 9
5 2 2 0 2 2 2 3 3 5 5 3 4 5 5 4 4 3 3 4 5 6 6 5 5 4 3 1 4 6 9 7 8 8 8 7 8 8 9 8 9 10
4 5 4 1 3 1 4 5 5 5 4 4 5 6 5 5 5 4 5 5 7 7 7 6 6 8 8 7 5 6 3 5 8 8 9 9 8 8 9 9 9 10
4 3 2 1 2 3 5 7 7 4 5 5 6 4 4 4 6 6 6 6 7 7 7 7 8 8 9 10 10 7 6 5 7 8 9 9 9 8 8 8 10 14
1 1 3 5 9 11 10 9 8 6 5 5 5 4 4 4 6 6 6 6 6 7 9 10 8 9 11 12 11 10 6 3 6 8 10 9 9 9 8 8 8 11
1 1 3 3 3 2 1 3 2 3 4 4 5 4 5 6 6 6 7 6 6 7 8 9 9 8 8 11 11 11 8 5 6 8 10 10 9 8 8 7 8 8
Wind_Direction
181 182 179 183 194 217 257 214 202 203 199 188 191 201 198 184 201 209 208 186 186 197 195 190 191 202 218 224 239 239 247 273 290 191 213 230 235 249 261 255 245 244
184 182 181 179 185 212 244 252 208 204 188 204 198 191 201 208 202 211 207 200 182 197 190 187 195 202 211 219 215 224 226 244 254 259 233 204 226 247 252 263 279 293
193 190 190 193 192 200 220 238 230 207 195 206 211 195 197 207 210 194 191 204 204 205 197 189 195 201 207 217 213 208 215 214 230 242 248 251 235 222 237 253 260 256
199 204 201 202 197 198 208 227 238 221 218 204 215 214 204 204 207 194 183 191 198 213 210 194 199 200 204 210 212 225 230 210 218 231 256 278 272 264 254 250 260 269
190 198 201 200 201 205 202 208 224 223 218 216 208 222 217 212 195 207 188 187 195 207 217 197 198 203 196 206 206 211 223 232 223 205 217 239 268 272 269 269 309 309
199 201 200 202 199 204 205 205 212 217 218 226 213 208 222 213 214 219 208 198 203 213 219 209 197 203 203 198 199 208 217 223 221 205 210 213 232 248 270 249 245 266
203 202 210 202 201 207 204 211 213 211 213 222 218 217 207 208 211 222 222 187 202 207 224 222 206 206 197 201 195 200 208 220 230 216 206 203 199 239 274 287 245 244
197 208 198 198 195 201 208 213 213 203 212 221 225 221 220 208 200 208 217 214 212 216 212 226 215 201 210 207 204 198 202 217 231 251 205 196 191 223 233 246 293 301
156 197 210 201 203 196 205 213 209 208 207 215 216 213 212 228 222 212 207 212 213 212 209 217 220 209 206 211 210 202 197 211 221 216 206 204 189 208 226 224 234 252
184 172 191 238 230 217 206 208 206 211 220 224 225 233 223 212 223 219 206 207 225 231 207 206 208 213 206 206 218 205 190 197 209 229 207 202 212 202 210 206 190 180
226 202 179 196 197 240 225 211 208 205 211 208 213 224 230 221 212 225 216 205 217 226 234 218 210 212 211 205 204 213 215 204 201 208 224 220 216 221 196 162 168 188
223 230 246 203 178 207 233 227 218 225 209 184 205 221 224 218 232 219 222 209 225 224 224 227 221 224 217 214 212 201 202 222 221 192 203 214 221 174 199 182 186 191
224 225 218 279 216 206 214 243 210 246 252 201 205 222 324 260 224 223 233 223 213 217 226 223 212 217 222 202 215 226 217 201 206 215 216 210 221 167 203 200 196 183
225 226 251 269 261 321 319 305 250 210 104 313 250 162 220 238 251 226 225 232 227 219 222 220 214 208 206 210 202 215 226 231 211 205 212 209 206 136 214 230 199 195
233 262 251 261 303 328 322 303 293 306 197 214 215 233 237 208 218 254 219 228 229 234 227 217 225 218 210 203 208 207 215 229 233 229 218 205 183 157 173 217 204 190
212 226 241 256 270 271 264 259 276 288 299 319 315 195 208 256 235 245 259 254 260 294 287 254 236 239 231 207 202 208 216 226 224 227 231 210 156 174 167 200 210 206
199 206 212 231 228 234 236 264 282 294 282 296 322 320 337 305 276 271 266 211 262 241 226 267 253 237 229 233 215 211 212 214 229 222 216 143 171 172 189 202 206 209
207 206 211 215 231 226 231 238 249 258 285 309 314 302 286 275 266 272 296 307 231 234 229 228 226 273 249 224 218 213 208 212 211 232 190 127 185 181 193 196 196 194
224 235 229 222 228 249 261 285 263 273 356 339 321 333 332 315 306 269 252 249 252 265 262 251 143 228 253 234 222 212 210 213 208 214 164 212 196 191 194 192 188 188
244 229 240 230 232 240 277 313 319 67 164 207 248 266 285 297 292 301 311 304 271 260 258 254 262 224 229 239 232 220 211 205 220 214 204 179 189 188 187 190 191 192
307 286 267 229 137 3 345 319 332 199 212 190 208 229 234 240 254 280 272 267 279 282 274 265 255 293 37 283 260 243 227 209 218 216 214 200 196 197 195 196 199 199
187 190 265 134 74 327 309 263 228 244 236 200 213 227 229 234 246 213 249 269 271 265 263 270 266 293 289 323 206 229 257 254 226 223 222 213 204 200 203 201 204 201
173 173 205 213 97 228 256 247 253 240 243 241 231 227 219 222 230 224 237 248 251 248 250 249 254 250 229 229 246 270 227 236 243 229 223 224 220 208 202 204 203 206
182 170 183 122 49 320 302 277 255 223 228 232 239 239 230 237 245 252 244 238 241 247 241 250 255 253 255 264 261 236 210 244 247 246 236 225 225 220 207 204 210 204
114 154 183 173 174 176 200 232 241 221 215 220 232 224 241 241 250 253 252 250 255 259 255 250 250 252 243 245 248 247 225 221 252 259 249 234 226 226 222 215 211 210
342 38 8 28 20 37 119 199 239 269 254 251 242 230 222 229 233 237 242 248 243 246 247 243 244 246 247 238 236 244 228 219 238 249 254 245 231 228 230 222 216 213